Location: ????????
(60.5616°N, 46.8254°E)
Time: 04:38:32
(UTC+00:00)

Cosmos 405 - Pass Details

Date: 18 February 2020
Orbit: 452 x 465 km, 81.3° (Epoch: 02 April)

Event Time Altitude Azimuth Distance (km) Brightness Sun altitude
Rises 15:46:35 0° 346° (NNW) 2,500 6.9 -15.0°
Reaches altitude 10° 15:48:50 10° 357° (N) 1,623 5.8 -15.3°
Maximum altitude 15:52:02 31° 62° (ENE) 834 3.8 -15.7°
Enters shadow 15:52:10 31° 66° (ENE) 835 3.8 -15.7°
